Maple Lake, MN

12:03 AM CDT on April 29, 2017 (GMT -0500)
Maple Lake Municipal

Weather History for KMGG - January, 2014

Change the Weather History Date:

Wednesday, January 15, 2014

  Actual Average (KSTC) Record (KSTC)
Temperature  
Mean Temperature 14 °F -  
Max Temperature 30 °F 17 °F 45 °F (1901)
Min Temperature 0 °F -2 °F -31 °F (1972)
Degree Days  
Heating Degree Days 51    
Moisture  
Dew Point 8 °F    
Average Humidity 82    
Maximum Humidity 93    
Minimum Humidity 72    
Precipitation  
Precipitation 0.00 in - - ()
Sea Level Pressure  
Sea Level Pressure 29.85 in    
Wind  
Wind Speed 7 mph (SW)    
Max Wind Speed 14 mph    
Max Gust Speed 23 mph    
Visibility 9 miles    
Events Snow    
Averages and records for this station are not official NWS values.
T = Trace of Precipitation, MM = Missing Value Source: NWS Daily Summary

Daily Weather History Graph

Daily Weather History Graph

Search for Another Location

Airport or City:

Trip Planner

Search our weather history database for the weather conditions in past years. The results will help you decide how hot, cold, wet, or windy it might be!

Date:

Astronomy

Jan. 15, 2014 Rise Set
Actual Time 7:51 AM CST 4:59 PM CST
Civil Twilight 7:18 AM CST 5:32 PM CST
Nautical Twilight 6:41 AM CST 6:09 PM CST
Astronomical Twilight 6:06 AM CST 6:44 PM CST
Moon 5:01 PM CST (1/15) 7:05 AM CST (1/15)
Length of Visible Light 10h 14m
Length of Day
9h 08m
Full, 100% of the Moon is Illuminated
Jan 15
Full
Jan 15
Full
Jan 23
Last Quarter
Jan 30
New
Feb 6
First Quarter

Hourly Weather History & Observations

Time (CST) Temp. Windchill Dew Point Humidity Pressure Visibility Wind Dir Wind Speed Gust Speed Precip Events Conditions
12:16 AM 5.9 °F -8.0 °F 1.0 °F 80% 30.15 in 10.0 mi NW 9.2 mph - N/A   Clear
12:37 AM 5.9 °F -10.5 °F 0.5 °F 78% 30.15 in 10.0 mi NW 12.7 mph 17.3 mph N/A   Clear
12:57 AM 5.5 °F -8.4 °F -0.0 °F 78% 30.15 in 10.0 mi NW 9.2 mph - N/A   Clear
1:16 AM 5.4 °F -9.6 °F -0.4 °F 77% 30.14 in 10.0 mi NNW 10.4 mph - N/A   Clear
1:37 AM 5.0 °F -10.0 °F -0.9 °F 76% 30.14 in 10.0 mi NNW 10.4 mph - N/A   Clear
1:57 AM 5.0 °F -9.1 °F -1.3 °F 75% 30.14 in 10.0 mi NNW 9.2 mph - N/A   Clear
2:17 AM 5.0 °F -9.1 °F -1.3 °F 75% 30.13 in 10.0 mi NNW 9.2 mph - N/A   Clear
2:36 AM 4.6 °F -8.5 °F -1.3 °F 76% 30.14 in 10.0 mi NW 8.1 mph - N/A   Clear
2:57 AM 3.9 °F -5.3 °F -1.7 °F 78% 30.14 in 10.0 mi NW 4.6 mph - N/A   Clear
3:17 AM 1.4 °F -6.2 °F -3.1 °F 81% 30.14 in 10.0 mi WNW 3.5 mph - N/A   Clear
3:36 AM 0.7 °F -7.1 °F -3.6 °F 82% 30.14 in 10.0 mi West 3.5 mph - N/A   Clear
3:57 AM -0.4 °F -8.3 °F -3.8 °F 85% 30.13 in 10.0 mi West 3.5 mph - N/A   Mostly Cloudy
4:17 AM 2.3 °F -7.2 °F -1.1 °F 86% 30.14 in 10.0 mi WNW 4.6 mph - N/A   Overcast
4:36 AM 4.1 °F -3.2 °F -0.0 °F 83% 30.14 in 10.0 mi WNW 3.5 mph - N/A   Overcast
4:57 AM 5.7 °F - 1.4 °F 82% 30.14 in 10.0 mi Calm Calm - N/A   Overcast
5:17 AM 6.3 °F -0.7 °F 1.9 °F 82% 30.13 in 10.0 mi WNW 3.5 mph - N/A   Overcast
5:36 AM 6.8 °F - 2.1 °F 81% 30.11 in 10.0 mi Calm Calm - N/A   Overcast
5:57 AM 6.8 °F -2.0 °F 2.3 °F 82% 30.11 in 10.0 mi West 4.6 mph - N/A   Overcast
6:16 AM 7.0 °F - 2.3 °F 81% 30.11 in 10.0 mi Calm Calm - N/A   Overcast
6:37 AM 7.3 °F 0.5 °F 2.7 °F 81% 30.11 in 10.0 mi West 3.5 mph - N/A   Overcast
6:57 AM 7.5 °F -1.1 °F 2.8 °F 81% 30.11 in 10.0 mi WSW 4.6 mph - N/A   Overcast
7:16 AM 7.5 °F 0.8 °F 2.7 °F 81% 30.10 in 10.0 mi WSW 3.5 mph - N/A   Overcast
7:37 AM 7.3 °F - 2.3 °F 80% 30.09 in 10.0 mi Calm Calm - N/A   Overcast
7:57 AM 7.3 °F 0.5 °F 2.5 °F 81% 30.09 in 10.0 mi SW 3.5 mph - N/A   Overcast
8:17 AM 7.2 °F - 2.5 °F 81% 30.08 in 10.0 mi Calm Calm - N/A   Overcast
8:37 AM 7.0 °F - 2.3 °F 81% 30.08 in 10.0 mi Calm Calm - N/A   Overcast
8:57 AM 7.5 °F 0.8 °F 2.7 °F 81% 30.08 in 10.0 mi SW 3.5 mph - N/A   Overcast
9:17 AM 7.7 °F 1.0 °F 2.7 °F 80% 30.07 in 10.0 mi SSW 3.5 mph - N/A   Overcast
9:36 AM 8.4 °F 1.8 °F 2.7 °F 77% 30.05 in 10.0 mi South 3.5 mph - N/A   Scattered Clouds
9:57 AM 9.3 °F -0.5 °F 2.7 °F 74% 30.05 in 10.0 mi SSW 5.8 mph - N/A   Scattered Clouds
10:17 AM 9.9 °F 3.4 °F 3.0 °F 74% 30.04 in 10.0 mi SSW 3.5 mph - N/A   Scattered Clouds
10:36 AM 10.2 °F -0.6 °F 3.2 °F 73% 30.04 in 10.0 mi SW 6.9 mph - N/A   Clear
10:57 AM 10.4 °F 0.8 °F 3.2 °F 73% 30.00 in 10.0 mi South 5.8 mph - N/A   Clear
11:17 AM 11.3 °F -1.3 °F 4.1 °F 73% 29.98 in 10.0 mi South 9.2 mph - N/A   Clear
11:37 AM 12.0 °F 1.5 °F 4.6 °F 72% 29.97 in 10.0 mi South 6.9 mph - N/A   Clear
11:56 AM 12.0 °F -1.3 °F 4.8 °F 73% 29.94 in 10.0 mi South 10.4 mph - N/A   Clear
12:17 PM 12.4 °F 0.9 °F 5.5 °F 74% 29.92 in 10.0 mi South 8.1 mph - N/A   Clear
12:37 PM 12.9 °F -0.2 °F 6.3 °F 75% 29.90 in 10.0 mi South 10.4 mph 16.1 mph N/A   Scattered Clouds
12:57 PM 13.6 °F 0.0 °F 7.5 °F 77% 29.88 in 10.0 mi South 11.5 mph - N/A   Overcast
1:17 PM 13.5 °F -0.9 °F 7.7 °F 78% 29.86 in 10.0 mi South 12.7 mph 17.3 mph N/A   Overcast
1:36 PM 13.6 °F 3.5 °F 8.2 °F 79% 29.85 in 10.0 mi South 6.9 mph 16.1 mph N/A Snow Light Snow
1:57 PM 13.8 °F 1.0 °F 8.4 °F 79% 29.83 in 7.0 mi South 10.4 mph 18.4 mph N/A Snow Light Snow
2:17 PM 14.0 °F -0.8 °F 8.6 °F 79% 29.80 in 10.0 mi South 13.8 mph 18.4 mph N/A   Overcast
2:36 PM 14.4 °F 0.9 °F 8.6 °F 78% 29.78 in 10.0 mi South 11.5 mph 18.4 mph N/A   Overcast
2:57 PM 14.7 °F 3.8 °F 8.8 °F 77% 29.77 in 10.0 mi South 8.1 mph 16.1 mph N/A   Overcast
3:17 PM 14.9 °F 1.6 °F 9.1 °F 78% 29.76 in 10.0 mi South 11.5 mph 17.3 mph N/A   Overcast
3:37 PM 15.4 °F 2.3 °F 10.0 °F 79% 29.74 in 5.0 mi South 11.5 mph 18.4 mph N/A   Haze
3:57 PM 15.6 °F 4.0 °F 11.3 °F 83% 29.73 in 1.8 mi South 9.2 mph 18.4 mph N/A Snow Light Snow
4:17 PM 15.4 °F 3.0 °F 12.4 °F 88% 29.70 in 0.8 mi South 10.4 mph 16.1 mph N/A Snow Light Snow
4:36 PM 15.8 °F 3.4 °F 13.1 °F 89% 29.67 in 1.0 mi South 10.4 mph - N/A Snow Light Snow
4:57 PM 16.3 °F 5.7 °F 13.8 °F 90% 29.67 in 2.0 mi South 8.1 mph - N/A Snow Light Snow
5:17 PM 16.3 °F 4.1 °F 14.0 °F 90% 29.63 in 1.5 mi SSE 10.4 mph 17.3 mph N/A Snow Light Snow
5:36 PM 16.5 °F 3.6 °F 14.7 °F 93% 29.60 in 1.8 mi South 11.5 mph 17.3 mph N/A Snow Light Snow
5:57 PM 17.6 °F 4.3 °F 15.4 °F 91% 29.60 in 5.0 mi South 12.7 mph 20.7 mph N/A Snow Light Snow
6:16 PM 18.1 °F 5.0 °F 15.8 °F 91% 29.58 in 10.0 mi South 12.7 mph 18.4 mph N/A   Mostly Cloudy
6:37 PM 18.9 °F 7.2 °F 16.7 °F 91% 29.55 in 10.0 mi South 10.4 mph 20.7 mph N/A   Scattered Clouds
6:56 PM 19.0 °F 6.8 °F 16.7 °F 91% 29.52 in 10.0 mi South 11.5 mph 19.6 mph N/A   Clear
7:17 PM 19.4 °F 7.2 °F 17.4 °F 92% 29.52 in 10.0 mi South 11.5 mph 23.0 mph N/A   Clear
7:37 PM 20.3 °F 7.2 °F 18.1 °F 91% 29.50 in 10.0 mi South 13.8 mph 20.7 mph N/A   Clear
7:56 PM 20.3 °F 8.3 °F 18.1 °F 91% 29.50 in 10.0 mi South 11.5 mph 18.4 mph N/A   Clear
8:17 PM 20.8 °F 9.0 °F 18.3 °F 90% 29.48 in 10.0 mi South 11.5 mph 19.6 mph N/A   Scattered Clouds
8:36 PM 21.4 °F 11.9 °F 18.5 °F 89% 29.47 in 10.0 mi South 8.1 mph 17.3 mph N/A   Mostly Cloudy
8:57 PM 22.5 °F 11.7 °F 19.4 °F 88% 29.45 in 10.0 mi SSW 10.4 mph 18.4 mph N/A   Overcast
9:17 PM 23.4 °F 18.9 °F 19.8 °F 86% 29.44 in 5.0 mi SSW 3.5 mph - N/A Snow Light Snow
9:37 PM 23.5 °F 19.1 °F 20.1 °F 87% 29.43 in 10.0 mi SSW 3.5 mph - N/A   Scattered Clouds
9:57 PM 23.5 °F - 19.9 °F 86% 29.41 in 10.0 mi Calm Calm - N/A   Mostly Cloudy
10:17 PM 23.4 °F 17.4 °F 20.1 °F 87% 29.40 in 10.0 mi SSW 4.6 mph - N/A   Scattered Clouds
10:37 PM 23.2 °F - 20.3 °F 89% 29.40 in 10.0 mi Calm Calm - N/A   Clear
10:56 PM 23.7 °F - 21.2 °F 90% 29.39 in 10.0 mi Calm Calm - N/A   Clear
11:17 PM 26.8 °F 19.3 °F 23.9 °F 89% 29.39 in 10.0 mi SW 6.9 mph - N/A   Clear
11:37 PM 28.4 °F 22.2 °F 24.8 °F 86% 29.38 in 10.0 mi WSW 5.8 mph - N/A   Clear
11:57 PM 30.2 °F 22.6 °F 26.2 °F 85% 29.37 in 10.0 mi WSW 8.1 mph - N/A   Scattered Clouds